CZ-6A DEB

Satellite information

Favourite Embed

Satellite Type and Status

DEBRISIN ORBIT

Key statistics

Satellite CZ-6A DEB at a glance.

Uptime

335

Days in orbit

Revolutions

≈ 14.1

Per day

Orbit

LEO

Low Earth Orbit

Inclination

89.1

Latest

Satellite identification and parameters

Extended collection of information and parameters for CZ-6A DEB.

Object identification

Identified? True

Debris? True

Object name: CZ-6A DEB

International designator: 2024-140NF

Object number (NORAD): 61089

Object ID (CCSDS): 61089

Country: PEOPLES REPUBLIC OF CHINA (PRC)

Current information (Y/N): Y

RCS size: SMALL

Orbital parameters

Period: 101.785 minutes

Inclination: 89.0732 deg

SMA: 7221.299 km

Apoapsis: 890.785 km

Periapsis: 795.543 km

RAAN: 316.573 deg

Eccentricy: 0.0065945

Argument of periapsis: 231.3837 deg

Mean anomaly: 128.1435 deg

Mean motion: 14.14750215 rev/day

Mean motion (dot): 0.0000075 rev/day2

B* drag term: 0.00037478 1/REarth

Two-line elements (TLE)

Creation date: July 6, 2025, 11:06 p.m.

Reference frame: TEME

Reference center: EARTH

Epoch: July 6, 2025, 8:06 p.m. UTC

TLE line 0: 0 CZ-6A DEB

TLE line 1: 1 61089U 24140NF 25187.83807593 .00000750 00000-0 37478-3 0 9995

TLE line 2: 2 61089 89.0732 316.5730 0065945 231.3837 128.1435 14.14750215 44334

Live tracking on map

Real-time ground track for satellite CZ-6A DEB.

In-orbit conjunctions

A list of the most updated potential collisions computed for object CZ-6A DEB.

Target Orbit TCA Probability of collision Miss distance Type
FENGYUN 1C DEB SSO 2025-04-06 05:49:36 0.0002258496 91.0 (m) DEBRIS
FENGYUN 1C DEB SSO 2025-03-19 10:15:56 0.0001254414 358.0 (m) DEBRIS
CZ-6A DEB LEO 2025-03-02 06:37:55 0.0002278458 414.0 (m) DEBRIS
SL-16 DEB LEO 2025-01-30 22:22:29 0.0001656578 720.0 (m) DEBRIS
DELTA 1 DEB SSO 2025-01-12 20:27:11 0.0009310373 467.0 (m) DEBRIS

Associated space launch

18 Low Earth Orbit communication satellites with Ku, Q and V band payloads for the G60 constellation operated by Shanghai Spacecom Satellite Technology (SSST) with funding backed by the Shanghai local government. Initial constellation will consist of 1296 satellites by 2027 with long term plans to expand it to 12000 satellites.

CZ-6A DEB was lifted into orbit during the mission ‘Long March 6A | G60 Polar Group 01’, on board a Long March 6A space rocket.

The launch took place on Aug. 6, 2024, 6:42 a.m. from Launch Complex 9A.

For more information about the launch, click the button.

Launch to space Long March 6A | G60 Polar Group 01
Long March 6A | G60 Polar Group 01

Agency: N/A

Status: Launch Successful

Launch date: Aug. 6, 2024, 6:42 a.m. UTC

Rocket: Long March 6A

Launch pad: Launch Complex 9A

Location: Taiyuan Satellite Launch Center, People's Republic of China

...

Latest news about this satellite

News about space launch
Brightness of first Chinese broadband constellation satellites alarms astronomers

The first satellites of a Chinese broadband constellation are significantly brighter than those of Western systems, posing a new challenge for astronomers.

News about space launch
Chinese rocket stage breaks up into cloud of more than 700 pieces of space debris

HELSINKI — A Chinese Long March 6A rocket’s upper stage has fragmented into a cloud of over 700 pieces of space debris, adding to concerns about long-term orbital safety. China […]

News about space launch
China's Thousand Sails Megaconstellation Kicks Off with Dangerous Debris Field

China's Thousand Sails Megaconstellation Kicks Off with Dangerous Debris Field


Newsletter sign-up

Weekly statistics, charts and insights to help you stay on top of the space industry.